Regional Weather Roundup
Issued by NWS Jackson, KY

Home | Current Version | Previous Version | Text Only | Print | Product List | Glossary On
Versions: 1 2 3 4 5 6 7 8 9 10 11 12 13 14 15 16 17 18 19 20 21 22 23 24 25 26 27 28 29 30 31 32 33 34 35 36 37 38 39 40 41 42 43 44 45 46 47 48 49 50
000
ASUS43 KJKL 290810
RWRJKL

EAST KENTUCKY HOURLY WEATHER ROUNDUP
NATIONAL WEATHER SERVICE JACKSON KY
400 AM EDT FRI APR 29 2016

NOTE: "FAIR" INDICATES FEW OR NO CLOUDS BELOW 12,000 FEET WITH
NO SIGNIFICANT WEATHER AND/OR OBSTRUCTIONS TO VISIBILITY.

* THESE REPORTS ARE NOT UNDER NWS QUALITY CONTROL AND MAY NOT
  REPORT WEATHER SUCH AS PRECIPITATION AND FOG.

KYZ079-080-083-085-087-088-110-112-115-119-120-290900
...EASTERN KENTUCKY...

CITY           SKY/WX    TMP DP  RH WIND       PRES   REMARKS
JACKSON        CLEAR     59  50  72 W3        30.00R
LONDON         CLEAR     54  52  93 CALM      30.01R
SOMERSET*      CLEAR     52  52 100 CALM      30.02S FOG
MONTICELLO*    CLEAR     52  51  97 W8        30.03S
WILLIAMSBURG*  SUNNY     55  55 100 CALM      30.02R
MIDDLESBORO*   CLEAR     58  53  84 CALM      30.01R
HARLAN APT*    CLOUDY    55  54  94 CALM      30.02R VSB<1/4
HAZARD APT*    SUNNY     59  54  82 SW3       30.00R
BLACK MTN*       N/A     52  48  87 N3          N/A
PIKE CO APT*     N/A     61  51  69 CALM      29.99R
BIG SANDY APT* SUNNY     58  54  86 W3        29.99R
MOREHEAD APT*  SUNNY     54  50  87 S3        30.00R
$$

KYZ035-036-041-042-044-050-067-078-099-290900
...CENTRAL KENTUCKY...

CITY           SKY/WX    TMP DP  RH WIND       PRES   REMARKS
MT STERLING*   CLEAR     55  50  82 W6        30.00S
FLEMING/MASON* CLEAR     55  51  87 W5        29.99R
DANVILLE*      CLEAR     59  50  72 NW3       30.02R
RICHMOND*      CLEAR     59  48  67 W6        30.00R
LEXINGTON      CLEAR     57  49  74 CALM      29.99S
FRANKFORT      CLEAR     55  49  80 CALM      29.97S
LOUISVILLE     PTCLDY    61  50  67 VRB5      29.98F
LEBANON*         N/A     55  50  82 CALM      30.00F
BOWLING GREEN  CLEAR     55  52  89 CALM      29.99S
$$

KYZ091>093-OHZ055-061-077-WVZ005-015-034-035-042-290900
...SOUTHERN OHIO/WEST VIRGINIA...

CITY           SKY/WX    TMP DP  RH WIND       PRES   REMARKS
COVINGTON      CLOUDY    56  55  97 N5        29.97F FOG
COLUMBUS       CLOUDY    52  49  89 NW5       29.95R FOG
DAYTON         CLOUDY    51  49  92 NW7       29.98S FOG
WILMINGTON     FOG       51  51 100 NW5       29.96F VSB 1/2
HUNTINGTON     CLOUDY    59  58  96 CALM      29.95R FOG
CHARLESTON       N/A     59  57  93 SW6       29.95R
PINEVILLE*     FOG       53  51  91 MISG      30.03R VSB 1/2
BECKLEY          N/A     57  51  80 W9        29.98R
$$

VAZ002-007-008-TNZ017-027-036-066-071-290900
...SOUTHWEST VIRGINIA/EAST TENNESSEE...

CITY           SKY/WX    TMP DP  RH WIND       PRES   REMARKS
WISE*            N/A     57  45  62 W3        30.04R
BRISTOL        CLEAR     56  53  90 CALM      30.00R
MORRISTOWN*    SUNNY     59  54  82 S5        30.00R
SEVIERVILLE*   SUNNY     55  54  94 CALM      30.01R
OAK RIDGE      CLEAR     60  54  80 E3        30.01R
CROSSVILLE     CLEAR     65  48  54 N3        30.04S
NASHVILLE      CLEAR     58  54  86 S5        29.99F
$$

...KEY TO REMARKS...
VSB - VISIBILITY IN MILES
WCI - WIND CHILL INDEX
HX  - HEAT INDEX

$$



USA.gov is the U.S. government's official web portal to all federal, state and local government web resources and services.